Location: Recife
(8.0585°S, 34.8848°W)
Time: 09:52:43
(UTC-03:00)

Courier 1B Rocket - Pass Details

Date: 16 April 2026
Orbit: 920 x 1201 km, 28.2° (Epoch: 13 May)

Event Time Altitude Azimuth Distance (km) Brightness Sun altitude
Rises 09:27:26 0° 230° (SW) 3,850 7.8 56.7°
Reaches altitude 10° 09:31:36 10° 207° (SSW) 2,957 7.4 57.5°
Maximum altitude 09:35:32 15° 174° (S) 2,651 7.3 58.3°
Drops below altitude 10° 09:39:35 10° 141° (SE) 3,059 7.8 59.2°
Sets 09:44:01 0° 119° (ESE) 4,062 8.4 60.0°
